Weather in Selets

Russia / Bryansk Oblast     52°30′58″N   33°35′03″E
temp.,
°C
wind,
m/s
gust,
m/s
humid.,
%
clouds,
%
prec.,
mm/h
press.,
hPa
HPBL,
m
14 may, fri
fri1400:00+9ese3886100 0.0 1013174
03:00+8ese389193 0.0 1014128
06:00+8ese398899 0.0 1013187
09:00+15se5970100 0.0 1012498
12:00+19ese6869100 0.3 10101025
15:00+20sse567092 2.8 10081145
18:00+18sse58829 3.1 1007377
21:00+14s4109416 7.9 1008196
15 may, sat
sat1500:00+12s34948 0.3 100850
03:00+11sse339391 0.3 100833
06:00+11sse369670 0.4 1008140
09:00+16s57825 0.8 1009546
12:00+19ssw796625 0.1 10091493
15:00+19sw796843 1.3 10091560
18:00+17ssw58795 1.2 1010845
21:00+13ssw511934 2.1 1011316
16 may, sun
sun1600:00+11ssw38945 0.0 1011163
03:00+10ssw38945 0.0 1012154
06:00+10ssw37945 0.0 1013164
09:00+15ssw35800 0.0 1013520
12:00+19sw46648 0.0 10131316
15:00+21sw345623 0.0 10121691
18:00+20ssw2366100 0.0 1012746
21:00+15s228097 0.0 101211
17 may, mon
mon1700:00+14e2283100 0.0 101213
03:00+12ene349096 0.0 101260
06:00+13ene3889100 0.0 1010148
09:00+19ene587340 0.0 1009399
12:00+24e6859100 0.0 10061197
15:00+25se61358100 0.0 10041700
18:00+23se71268100 0.1 1004765
21:00+17s4794100 1.1 1004188
18 may, tue
tue1800:00+15wsw4796100 2.2 1005345
03:00+14wnw3795100 2.2 1007454
06:00+13wnw2598100 0.0 1007165
09:00+16w2284100 0.0 1008569
12:00+19wsw3372100 0.1 10091047
15:00+19sw236999 0.7 1008936
18:00+19w34731 0.4 1008614
21:00+15w118625 0.5 100911